星链-5097 (STARLINK-5097 )

导读 | 星芒AI

STARLINK-5097 是 SpaceX 星链计划中的一颗低轨通信卫星,属于第 14 批组网发射的星链卫星之一。该卫星运行在约 550 公里的近地轨道,旨在为全球用户提供高速互联网服务。星链系统通过部署大量卫星,构建覆盖全球的宽带网络,特别服务于偏远地区。STARLINK-5097 采用先进推进和通信技术,具备自动避碰功能,有助于提升系统稳定性和安全性。该卫星的发射和运行是 SpaceX 实现全球互联网覆盖目标的重要组成部分。

基本信息
目录编号:
53995
目录名称:
STARLINK-5097
国际标识:
2022-125AH
轨道中心:
EARTH
卫星名称:
星链-5097
卫星全名:
星链-5097 (STARLINK-5097 )
卫星状态:
在轨 (已飞行1173 天)
发射日期:
2022-10-05 UTC
国别 :
美国 (US)
星等 :
--
轨道信息
数据来源 国际轨道数据
星历时间: 2025-12-21T07:59:47+0800
9小时前
查看轨道信息
半长轴: 6917.868km
偏心率: 0.0001446
轨道倾角: 53.216°
近地点辐角 85.821°
升交点赤经 207.334°
平近点角 274.294°
近地点: 538.73km
远地点: 540.732km
周期: 95.437分钟
每日圈数: 15.088441
详细信息
固有亮度:
5
最大亮度:
2.5
卫星平台:
Starlink v1.5
覆盖范围:
全球
运营商:
太空探索技术公司
运营商所在国:
美国
制造商(研发单位):
太空探索技术公司
制造商所在国:
美国
使用方式:
暂无
卫星简介
星链(Starlink)计划是由太空探索技术公司(SpaceX)提出的一个巨型低轨卫星互联网星座项目,计划在2019年至2024年间在太空搭建由约1.2万颗卫星组成的“星链”网络,其中1584颗将部署在地球上空550千米处的近地轨道,并从2020年开始工作。该卫星仍在工作。
2D轨道图
3D轨道图
轨道高度分析图
轨道倾角分析图
轨道综合分析图
查看轨道综合分析图